Weather History for Trinidad, CO

Change the Weather History Date:

Tuesday, December 24, 2013

  Actual Average Record
Temperature  
Mean Temperature 42 °F 31 °F  
Max Temperature 62 °F 45 °F 73 °F (1955)
Min Temperature 22 °F 17 °F -14 °F (1983)
Degree Days  
Heating Degree Days 23 34  
Month to date heating degree days 807 799  
Since 1 July heating degree days 1978 2032  
Cooling Degree Days 0 0  
Month to date cooling degree days 0 0  
Year to date cooling degree days 1068 719  
Moisture  
Dew Point 18 °F    
Average Humidity 49    
Maximum Humidity 81    
Minimum Humidity 16    
Precipitation  
Precipitation T in 0.02 in 0.38 in (1973)
Month to date precipitation T 0.43  
Year to date precipitation 9.80 13.73  
Sea Level Pressure  
Sea Level Pressure 30.13 in    
Wind  
Wind Speed 14 mph (NW)    
Max Wind Speed 39 mph    
Max Gust Speed 50 mph    
Visibility 8 miles    
Events Rain    
T = Trace of Precipitation, MM = Missing Value Source: NWS Daily Summary

Daily Weather History Graph

Daily Weather History Graph

Search for Another Location

Airport:

Trip Planner

Search our weather history database for the weather conditions in past years. The results will help you decide how hot, cold, wet, or windy it might be!

Date:

Astronomy

Dec. 24, 2013 Rise Set
Actual Time 7:09 AM MST 4:45 PM MST
Civil Twilight 6:39 AM MST 5:14 PM MST
Nautical Twilight 6:07 AM MST 5:47 PM MST
Astronomical Twilight 5:35 AM MST 6:18 PM MST
Moon 11:46 PM MST (12/24) 11:12 AM MST (12/24)
Length of Visible Light 10h 34m
Length of Day
9h 36m
Waning Gibbous, 58% of the Moon is Illuminated
Dec 24
Waning Gibbous
Dec 25
Last Quarter
Jan 1
New
Jan 7
First Quarter
Jan 15
Full

Hourly Weather History & Observations

Time (MST) Temp. Windchill Dew Point Humidity Pressure Visibility Wind Dir Wind Speed Gust Speed Precip Events Conditions
12:54 AM 27.0 °F 16.1 °F 10.0 °F 49% 30.16 in 10.0 mi WSW 12.7 mph - N/A   Clear
1:54 AM 27.0 °F 15.6 °F 10.0 °F 49% 30.13 in 10.0 mi West 13.8 mph - N/A   Clear
2:54 AM 26.1 °F 16.2 °F 10.9 °F 53% 30.12 in 10.0 mi West 10.4 mph - N/A   Clear
3:54 AM 25.0 °F 13.6 °F 10.9 °F 55% 30.12 in 10.0 mi NW 12.7 mph - N/A   Clear
4:54 AM 32.0 °F 21.6 °F 14.0 °F 48% 30.10 in 10.0 mi West 15.0 mph - N/A   Clear
5:54 AM 30.0 °F 18.7 °F 14.0 °F 51% 30.12 in 10.0 mi West 16.1 mph - N/A   Clear
6:54 AM 34.0 °F 22.4 °F 15.1 °F 46% 30.14 in 10.0 mi WSW 20.7 mph - N/A   Clear
7:54 AM 37.9 °F 28.5 °F 16.0 °F 41% 30.12 in 10.0 mi WSW 17.3 mph - N/A   Clear
8:54 AM 48.9 °F - 19.0 °F 31% 30.07 in 10.0 mi WNW 18.4 mph - N/A   Clear
9:54 AM 54.0 °F - 19.0 °F 25% 30.04 in 10.0 mi WNW 8.1 mph - N/A   Clear
10:54 AM 59.0 °F - 18.0 °F 20% 29.99 in 10.0 mi WNW 11.5 mph 21.9 mph N/A   Clear
11:54 AM 62.1 °F - 15.1 °F 16% 29.94 in 10.0 mi WNW 12.7 mph 23.0 mph N/A   Clear
12:54 PM 61.0 °F - 16.0 °F 17% 29.92 in 10.0 mi NW 24.2 mph 31.1 mph N/A   Clear
1:54 PM 57.0 °F - 18.0 °F 22% 29.94 in 10.0 mi NNW 25.3 mph 38.0 mph N/A   Clear
2:54 PM 57.0 °F - 18.0 °F 22% 29.95 in 10.0 mi North 21.9 mph 31.1 mph N/A   Clear
3:54 PM 54.0 °F - 17.1 °F 23% 29.98 in 10.0 mi NNW 20.7 mph 28.8 mph N/A   Clear
4:52 PM 46.4 °F 36.3 °F 19.4 °F 34% 30.09 in 1.5 mi NNE 36.8 mph 50.6 mph N/A   Haze
4:54 PM 43.0 °F 32.5 °F 21.9 °F 43% 30.07 in 1.0 mi NNE 29.9 mph 50.6 mph 0.00 in Rain Light Rain
4:58 PM 39.9 °F 28.2 °F 25.0 °F 55% 30.10 in 0.8 mi NNE 31.1 mph 50.6 mph 0.00 in Rain Light Rain
5:08 PM 37.9 °F 25.5 °F 25.0 °F 60% 30.12 in 1.8 mi NNE 31.1 mph 40.3 mph 0.00 in   Haze
5:17 PM 37.0 °F 27.0 °F 25.0 °F 62% 30.17 in 2.5 mi NE 18.4 mph 40.3 mph 0.00 in   Haze
5:33 PM 36.0 °F 24.4 °F 25.0 °F 64% 30.20 in 3.0 mi NE 23.0 mph 34.5 mph 0.00 in   Haze
5:54 PM 35.1 °F 27.9 °F 24.1 °F 64% 30.27 in 3.0 mi ENE 9.2 mph - 0.00 in   Haze
6:12 PM 35.1 °F 30.1 °F 23.0 °F 61% 30.25 in 6.0 mi ENE 5.8 mph - N/A   Haze
6:54 PM 35.1 °F 32.2 °F 21.9 °F 59% 30.29 in 6.0 mi ESE 3.5 mph - N/A   Haze
7:54 PM 34.0 °F 28.8 °F 19.9 °F 56% 30.31 in 10.0 mi NE 5.8 mph - N/A   Overcast
8:54 PM 32.0 °F 25.6 °F 21.9 °F 66% 30.29 in 10.0 mi North 6.9 mph - 0.00 in   Overcast
9:54 PM 27.0 °F 19.5 °F 21.0 °F 78% 30.29 in 10.0 mi South 6.9 mph - N/A   Mostly Cloudy
10:54 PM 25.0 °F 19.3 °F 19.9 °F 81% 30.27 in 10.0 mi SW 4.6 mph - N/A   Overcast
11:54 PM 21.9 °F 14.5 °F 18.0 °F 85% 30.27 in 10.0 mi WNW 5.8 mph - N/A   Clear